Home > Time Zones > World Clock > Weather > Qatar > Doha > Past weeks

Flag for Qatar Weather past 2 weeks in Doha, Qatar

Now
95 °F

Passing clouds.


Feels Like: 110 °F
Forecast: 89 / 106 °F
Wind: 3 mph from South

Location: Doha International Airport

Current Time: Jul 31, 2014 at 10:53:34 PM

Latest Report: Jul 31, 2014 at 10:00 PM


Visibility: N/A

Pressure: 29.47 "Hg

Humidity: 56%

Dew point: 77 °F

Location of DohaLocation

Historic Weather in Doha — Graph

°F

Doha temperature yesterday

Maximum temperature yesterday: 113 °F (at 11:30 AM)
Minimum temperature yesterday: 91 °F (at 3:00 AM)
Average temperature yesterday: 100 °F

Past Weeks' High & Low Weather Summary

 TemperatureHumidityPressure
High113 °F (Jul 30, 11:30 AM)89% (Jul 19, 1:00 AM)29.62 "Hg (Jul 19, 1:00 AM)
Low90 °F (Jul 19, 1:00 AM)11% (Jul 23, 12:00 PM)29.36 "Hg (Jul 17, 4:30 PM)
Average100 °F38%29.47 "Hg
* Reported Jul 16 9:00 PM — Jul 31 9:00 PM, Doha, Weather by CustomWeather, © 2014

Note: Actual official high and low records may vary slightly from our data, if they occured in-between our weather recording intervals... More about our weather records

Advertising

Doha weather history for previous 24 hours

 ConditionsComfort  
Time TempWeatherWind HumidityBarometerVisibility
9:00 PM
Jul 31
93 °FClear.3 mph67%29.47 "Hg10 mi
7:30 PM95 °FClear.6 mph63%29.45 "Hg6 mi
7:00 PM95 °FClear.5 mph63%29.45 "Hg5 mi
6:00 PM95 °FClear.6 mph67%29.45 "Hg6 mi
5:30 PM97 °FClear.6 mph63%29.45 "Hg6 mi
5:00 PM97 °FSunny.8 mph60%29.45 "Hg10 mi
4:30 PM99 °FPassing clouds.9 mph53%29.45 "HgN/A
4:00 PM99 °FPassing clouds.10 mph50%29.45 "HgN/A
3:00 PM102 °FPassing clouds.10 mph37%29.45 "HgN/A
2:30 PM102 °FPassing clouds.10 mph42%29.45 "HgN/A
2:00 PM102 °FPassing clouds.12 mph37%29.45 "HgN/A
1:30 PM104 °FSunny.13 mph31%29.45 "Hg10 mi
1:00 PM102 °FSunny.10 mph37%29.47 "Hg10 mi
12:00 PM104 °FPassing clouds.8 mph31%29.47 "HgN/A
11:00 AM102 °FPassing clouds.7 mph35%29.47 "HgN/A
10:00 AM102 °FClear.7 mph37%29.50 "Hg6 mi
9:00 AM102 °FPassing clouds.6 mph29%29.50 "HgN/A
8:00 AM102 °FPassing clouds.3 mph24%29.50 "HgN/A
7:00 AM99 °FPassing clouds.5 mph24%29.47 "HgN/A
6:30 AM97 °FPassing clouds.3 mph28%29.47 "HgN/A
5:30 AM95 °FClear.5 mph32%29.47 "Hg5 mi
5:00 AM95 °FClear.3 mph32%29.47 "Hg4 mi
4:30 AM95 °FClear.5 mph32%29.45 "Hg4 mi
4:00 AM95 °FClear.6 mph34%29.45 "Hg4 mi
3:30 AM95 °FClear.6 mph36%29.45 "Hg4 mi
3:00 AM95 °FClear.6 mph44%29.45 "Hg5 mi
2:30 AM95 °FClear.7 mph41%29.45 "Hg5 mi
2:00 AM95 °FClear.6 mph50%29.45 "Hg5 mi
1:30 AM95 °FClear.6 mph50%29.45 "Hg5 mi
1:00 AM95 °FClear.5 mph47%29.45 "Hg4 mi
12:30 AM95 °FClear.6 mph53%29.45 "Hg4 mi
12:00 AM97 °FClear.6 mph47%29.45 "Hg4 mi
11:30 PM
Jul 30
97 °FClear.3 mph44%29.45 "Hg4 mi
11:00 PM99 °FClear.5 mph37%29.47 "Hg4 mi
10:00 PM97 °FClear.3 mph44%29.47 "Hg4 mi
Weather by CustomWeather, © 2014

See weather overviewHow to use our weather pages